EW3521 Weather Reports


time (UTC)temp
C
wind
direction
speed
KPH
gust
KPH
rain 1hr
cm
rain 24hr
cm
rain mn
cm
humidity
%
barometer
mb
20260510224544 7 121 0.0 3.2 0.00 0.00 0.00 47 1027.5
20260510223039 8 94 0.0 3.2 0.00 0.00 0.00 59 1027.3
20260510221538 8 158 0.0 4.8 0.00 0.00 0.00 47 1027.2
20260510220035 8 131 0.0 3.2 0.00 0.00 0.00 49 1027.0
20260510214533 9 122 0.0 4.8 0.00 0.00 0.00 51 1027.0
20260510213031 9 91 1.6 4.8 0.00 0.00 0.00 52 1026.8
20260510211530 9 58 1.6 6.4 0.00 0.00 0.00 52 1026.7
20260510210026 9 48 1.6 6.4 0.00 0.00 0.00 56 1026.7
20260510204525 7 53 1.6 4.8 0.00 0.00 0.00 62 1026.6
20260510203025 8 79 1.6 4.8 0.00 0.00 0.00 59 1026.5
20260510201522 8 79 1.6 6.4 0.00 0.00 0.00 60 1026.6
20260510200021 8 49 1.6 4.8 0.00 0.00 0.00 61 1026.4
20260510194522 8 168 0.0 4.8 0.00 0.00 0.00 57 1026.3
20260510193018 7 116 0.0 6.4 0.00 0.00 0.00 62 1026.4
20260510191517 6 105 0.0 4.8 0.00 0.00 0.00 65 1026.3
20260510190015 7 122 0.0 6.4 0.00 0.00 0.00 64 1026.3
20260510184513 6 82 0.0 4.8 0.00 0.00 0.00 66 1026.0
20260510183010 6 81 0.0 4.8 0.00 0.00 0.00 66 1025.6
20260510181511 6 78 0.0 4.8 0.00 0.00 0.00 63 1025.4
20260510180012 6 120 0.0 4.8 0.00 0.00 0.00 66 1025.4
20260510174507 6 77 0.0 3.2 0.00 0.00 0.00 71 1025.4
20260510173006 6 180 1.6 4.8 0.00 0.00 0.00 67 1025.4
20260510171504 7 103 0.0 4.8 0.00 0.00 0.00 69 1025.2
20260510170003 7 56 1.6 4.8 0.00 0.00 0.00 64 1025.0
20260510164501 6 164 0.0 4.8 0.00 0.00 0.00 68 1025.0
20260510163109 7 118 1.6 4.8 0.00 0.00 0.00 69 1024.9
20260510161558 7 91 1.6 4.8 0.00 0.00 0.00 65 1024.7
20260510160055 7 105 1.6 8.0 0.00 0.00 0.00 64 1024.4
20260510154558 8 90 1.6 4.8 0.00 0.00 0.00 62 1024.3
20260510153052 7 97 1.6 6.4 0.00 0.00 0.00 64 1024.1
20260510151551 8 89 1.6 4.8 0.00 0.00 0.00 61 1023.8
20260510150052 7 86 1.6 4.8 0.00 0.00 0.00 64 1023.6
20260510144558 7 70 0.0 6.4 0.00 0.00 0.00 67 1023.5
20260510143039 6 105 1.6 6.4 0.00 0.00 0.00 68 1023.4
20260510141536 6 91 1.6 4.8 0.00 0.00 0.00 69 1023.2
20260510140031 5 68 0.0 4.8 0.00 0.00 0.00 78 1023.2
20260510134531 5 101 0.0 4.8 0.00 0.00 0.00 78 1023.1
20260510133028 5 86 0.0 3.2 0.00 0.00 0.00 80 1023.1
20260510131526 4 32 1.6 3.2 0.00 0.00 0.00 80 1023.0
20260510130024 4 64 0.0 4.8 0.00 0.00 0.00 81 1022.9
20260510124529 4 144 0.0 3.2 0.00 0.00 0.00 77 1022.8
20260510123023 3 111 0.0 3.2 0.00 0.00 0.00 84 1022.7
20260510121526 3 75 0.0 3.2 0.00 0.00 0.00 86 1022.6
20260510120027 2 79 0.0 1.6 0.00 0.00 0.00 90 1022.4
20260510114516 2 91 0.0 1.6 0.00 0.00 0.00 91 1022.2
20260510113014 1 126 0.0 1.6 0.00 0.00 0.00 96 1021.9
20260510111513 0 110 0.0 0.0 0.00 0.00 0.00 95 1021.8
20260510110014 -1 110 0.0 1.6 0.00 0.00 0.00 94 1021.5
20260510104507 -1 98 0.0 0.0 0.00 0.00 0.00 93 1021.2
20260510103003 -1 98 0.0 0.0 0.00 0.00 0.00 93 1021.0
20260510101600 -1 92 0.0 0.0 0.00 0.00 0.00 92 1020.7
20260510094553 0 92 0.0 1.6 0.00 0.00 0.00 90 1020.4
20260510093050 0 92 0.0 0.0 0.00 0.00 0.00 89 1020.3
20260510091546 1 92 0.0 1.6 0.00 0.00 0.00 88 1020.0
20260510090043 1 92 0.0 1.6 0.00 0.00 0.00 88 1019.8
20260510084541 1 92 0.0 1.6 0.00 0.00 0.00 88 1019.7
20260510083039 1 91 0.0 1.6 0.00 0.00 0.00 88 1019.6
20260510081541 1 91 0.0 1.6 0.00 0.00 0.00 87 1019.5
20260510080034 2 91 0.0 1.6 0.00 0.00 0.00 84 1019.3
20260510074534 2 90 0.0 1.6 0.00 0.00 0.00 79 1019.0
20260510073028 2 94 0.0 1.6 0.00 0.00 0.00 76 1018.8
20260510071526 2 146 0.0 1.6 0.00 0.00 0.00 76 1018.5
20260510070023 2 150 0.0 0.0 0.00 0.00 0.00 76 1018.3
20260510064521 2 150 0.0 0.0 0.00 0.00 0.00 75 1018.3
20260510063021 2 122 0.0 1.6 0.00 0.00 0.00 76 1018.3
20260510061527 2 156 0.0 0.0 0.00 0.00 0.00 74 1018.1
20260510060031 2 156 0.0 0.0 0.00 0.00 0.00 73 1018.1
20260510054511 3 156 0.0 0.0 0.00 0.00 0.00 70 1017.8
20260510053007 3 132 0.0 1.6 0.00 0.00 0.00 67 1017.8
20260510051505 4 136 0.0 1.6 0.00 0.00 0.00 66 1017.6
20260510050002 4 138 0.0 3.2 0.00 0.00 0.00 64 1017.5
20260510044600 4 141 0.0 4.8 0.00 0.00 0.00 62 1017.5
20260510043144 5 124 0.0 4.8 0.00 0.00 0.00 62 1017.4
20260510041556 4 135 0.0 4.8 0.00 0.00 0.00 63 1017.1
20260510040051 5 152 0.0 6.4 0.00 0.00 0.00 63 1016.7
20260510034554 5 123 1.6 4.8 0.00 0.00 0.00 63 1016.5
20260510033050 5 139 1.6 6.4 0.00 0.00 0.00 63 1016.6
20260510031619 5 117 0.0 4.8 0.00 0.00 0.00 63 1016.7
20260510030044 5 126 1.6 8.0 0.00 0.00 0.00 64 1016.6
20260510024546 5 139 0.0 4.8 0.00 0.00 0.00 64 1016.5
20260510023051 5 120 0.0 4.8 0.00 0.00 0.00 64 1016.5
20260510021544 5 155 0.0 3.2 0.00 0.00 0.00 66 1016.3
20260510020038 5 126 0.0 1.6 0.00 0.00 0.00 66 1016.2
20260510014535 5 148 0.0 3.2 0.00 0.00 0.00 64 1015.7
20260510013036 6 139 0.0 3.2 0.00 0.00 0.00 64 1015.5
20260510011530 6 156 1.6 6.4 0.00 0.00 0.00 62 1015.2
20260510010029 6 125 0.0 6.4 0.00 0.00 0.00 62 1015.0
20260510004522 7 137 0.0 8.0 0.00 0.00 0.00 61 1014.7
20260510003020 7 193 1.6 8.0 0.00 0.00 0.00 59 1014.3
20260510001518 7 72 3.2 8.0 0.00 0.00 0.00 58 1014.0
20260510000014 8 130 1.6 11.3 0.00 0.00 0.00 61 1013.6
20260509234513 8 165 0.0 8.0 0.00 0.00 0.00 63 1013.3
20260509233010 8 155 0.0 8.0 0.00 0.00 0.00 62 1012.8
20260509231506 9 145 1.6 9.7 0.00 0.00 0.00 58 1012.5
20260509230005 10 124 3.2 11.3 0.00 0.00 0.00 53 1012.1